Flag for Norway Weather past 2 weeks in Randaberg, Norway

Now
52 °F

Sunny.


Feels Like: 49 °F
Forecast: 46 / 50 °F
Wind: 8 mph from Northwest

Location: Stavanger / Sola

Current Time: May 26, 2015 at 4:58:42 PM

Latest Report: May 26, 2015 at 4:00 PM


Visibility: 16 mi

Pressure: 29.98 "Hg

Humidity: 70%

Dew point: 43 °F

Location of RandabergLocation

Historic Weather in Randaberg — Graph

°F

Randaberg temperature yesterday

Maximum temperature yesterday: 51 °F (at 7:00 PM)
Minimum temperature yesterday: 45 °F (at 4:00 AM)
Average temperature yesterday: 49 °F

Past Weeks' High & Low Weather Summary

 TemperatureHumidityPressure
High54 °F (May 18, 1:00 PM)97% (May 13, 7:00 AM)30.17 "Hg (May 13, 7:00 AM)
Low39 °F (May 15, 6:00 AM)48% (May 18, 6:00 PM)29.23 "Hg (May 19, 7:00 AM)
Average48 °F81%29.84 "Hg
* Reported May 11 3:00 PM — May 26 3:00 PM, Randaberg, Weather by CustomWeather, © 2015

Note: Actual official high and low records may vary slightly from our data, if they occured in-between our weather recording intervals... More about our weather records

Advertising

Randaberg weather history for previous 24 hours

 ConditionsComfort  
Time TempWeatherWind HumidityBarometerVisibility
3:00 PM
Tue, May 26
51 °FSunny.9 mph71%29.97 "Hg25 mi
2:00 PM53 °FSunny.9 mph70%29.96 "Hg19 mi
1:00 PM51 °FSunny.9 mph71%29.96 "Hg19 mi
12:00 PM51 °FSunny.9 mph69%29.95 "Hg22 mi
11:00 AM51 °FPartly sunny.9 mph74%29.94 "Hg16 mi
10:00 AM51 °FPartly sunny.8 mph71%29.93 "Hg22 mi
9:00 AM49 °FOvercast.6 mph76%29.93 "Hg19 mi
8:00 AM48 °FScattered clouds.8 mph76%29.92 "Hg15 mi
7:00 AM47 °FOvercast.7 mph85%29.92 "Hg16 mi
6:00 AM46 °FPartly sunny.7 mph86%29.90 "Hg14 mi
5:00 AM46 °FPartly sunny.5 mph88%29.90 "Hg12 mi
4:00 AM46 °FClear.5 mph88%29.89 "Hg12 mi
3:00 AM46 °FPassing clouds.6 mph86%29.89 "Hg16 mi
2:00 AM46 °FClear.5 mph86%29.89 "Hg19 mi
1:00 AM47 °FPassing clouds.6 mph83%29.90 "Hg19 mi
12:00 AM47 °FClear.6 mph83%29.89 "Hg19 mi
10:00 PM
Mon, May 25
48 °FPassing clouds.7 mph78%29.88 "Hg19 mi
9:00 PM49 °FScattered clouds.5 mph75%29.87 "Hg28 mi
8:00 PM50 °FOvercast.5 mph72%29.86 "Hg31 mi
7:00 PM51 °FSunny.8 mph77%29.85 "Hg18 mi
6:00 PM50 °FOvercast.7 mph75%29.85 "Hg17 mi
5:00 PM50 °FOvercast.7 mph79%29.85 "Hg18 mi
4:00 PM51 °FScattered clouds.5 mph78%29.85 "Hg12 mi
Weather by CustomWeather, © 2015

See weather overviewHow to use our weather pages